HBLMA KBOS-KFMH

Flight info

Callsign HBLMA
Flight time 0h 22m
Altitude 9000
Route DUNKK
Aircraft DA42/L-SBDGRY/S

Departure

Time 2026-05-04 18:49
Airport Boston Logan International Airport (KBOS)

Arrival

Time 2026-05-04 19:11
Airport Cape Cod Coast Guard Air Station (KFMH)
Time Latitude Longitude Altitude Speed Heading
2026-05-04 18:29 42.37359 -71.02116 16 ft 0 kts 134°
2026-05-04 18:44 42.37282 -71.02072 22 ft 15 kts 132°
2026-05-04 18:44 42.37261 -71.02036 22 ft 14 kts 137°
2026-05-04 18:44 42.37185 -71.01872 24 ft 13 kts 126°
2026-05-04 18:44 42.37134 -71.01769 24 ft 4 kts 111°
2026-05-04 18:45 42.37087 -71.01679 24 ft 21 kts 134°
2026-05-04 18:45 42.36983 -71.01539 21 ft 21 kts 137°
2026-05-04 18:45 42.36896 -71.01409 20 ft 16 kts 135°
2026-05-04 18:45 42.36809 -71.01300 18 ft 15 kts 129°
2026-05-04 18:46 42.36745 -71.01242 19 ft 7 kts 181°
2026-05-04 18:46 42.36689 -71.01254 20 ft 7 kts 193°
2026-05-04 18:46 42.36610 -71.01273 19 ft 12 kts 174°
2026-05-04 18:46 42.36566 -71.01201 19 ft 9 kts 114°
2026-05-04 18:47 42.36559 -71.01177 19 ft 0 kts 103°
2026-05-04 18:47 42.36553 -71.01147 20 ft 15 kts 106°
2026-05-04 18:48 42.36510 -71.01097 21 ft 13 kts 189°
2026-05-04 18:48 42.36228 -71.01216 19 ft 66 kts 194°
2026-05-04 18:48 42.35733 -71.01450 145 ft 81 kts 208°
2026-05-04 18:48 42.35124 -71.01404 467 ft 95 kts 164°
2026-05-04 18:49 42.34692 -71.00682 804 ft 109 kts 125°
2026-05-04 18:49 42.34352 -70.99737 1054 ft 112 kts 126°
2026-05-04 18:49 42.34034 -70.98782 1293 ft 112 kts 126°
2026-05-04 18:49 42.33658 -70.97905 1509 ft 102 kts 152°
2026-05-04 18:50 42.33104 -70.97287 1711 ft 107 kts 156°
2026-05-04 18:50 42.32518 -70.96651 1972 ft 108 kts 156°
2026-05-04 18:50 42.31948 -70.95994 2347 ft 110 kts 153°
2026-05-04 18:50 42.31306 -70.95228 2410 ft 130 kts 149°
2026-05-04 18:51 42.30650 -70.94397 2699 ft 129 kts 149°
2026-05-04 18:51 42.29993 -70.93554 2976 ft 131 kts 149°
2026-05-04 18:51 42.29334 -70.92707 3271 ft 132 kts 149°
2026-05-04 18:51 42.28667 -70.91849 3560 ft 131 kts 149°
2026-05-04 18:52 42.28008 -70.91000 3846 ft 132 kts 151°
2026-05-04 18:52 42.27342 -70.90145 4150 ft 132 kts 151°
2026-05-04 18:52 42.26678 -70.89294 4429 ft 133 kts 151°
2026-05-04 18:52 42.26002 -70.88427 4699 ft 134 kts 151°
2026-05-04 18:53 42.25329 -70.87564 4960 ft 136 kts 150°
2026-05-04 18:53 42.24640 -70.86680 5269 ft 138 kts 150°
2026-05-04 18:53 42.23947 -70.85794 5591 ft 137 kts 150°
2026-05-04 18:53 42.23257 -70.84906 5890 ft 138 kts 149°
2026-05-04 18:54 42.22560 -70.84011 6167 ft 139 kts 150°
2026-05-04 18:54 42.21855 -70.83108 6425 ft 140 kts 150°
2026-05-04 18:54 42.21145 -70.82201 6679 ft 141 kts 149°
2026-05-04 18:54 42.20432 -70.81287 6995 ft 142 kts 149°
2026-05-04 18:55 42.19714 -70.80370 7259 ft 143 kts 149°
2026-05-04 18:55 42.18245 -70.78488 7791 ft 147 kts 149°
2026-05-04 18:55 42.17499 -70.77537 8095 ft 148 kts 149°
2026-05-04 18:56 42.16758 -70.76592 8362 ft 149 kts 148°
2026-05-04 18:56 42.16000 -70.75624 8640 ft 151 kts 148°
2026-05-04 18:56 42.15236 -70.74647 8914 ft 153 kts 147°
2026-05-04 18:56 42.14429 -70.73625 8998 ft 169 kts 146°
2026-05-04 18:57 42.13832 -70.72871 9006 ft 178 kts 146°
2026-05-04 18:57 42.12590 -70.71290 8937 ft 193 kts 144°
2026-05-04 18:57 42.11606 -70.70023 8936 ft 197 kts 144°
2026-05-04 18:57 42.10944 -70.69174 8929 ft 200 kts 144°
2026-05-04 18:58 42.09598 -70.67455 8926 ft 201 kts 144°
2026-05-04 18:58 42.08576 -70.66155 8925 ft 202 kts 144°
2026-05-04 18:58 42.07497 -70.64867 8706 ft 209 kts 147°
2026-05-04 18:58 42.06428 -70.63577 8444 ft 208 kts 145°
2026-05-04 18:59 42.05360 -70.62269 8185 ft 207 kts 146°
2026-05-04 18:59 42.04649 -70.61410 8014 ft 207 kts 146°
2026-05-04 18:59 42.03221 -70.59698 7674 ft 205 kts 146°
2026-05-04 18:59 42.02155 -70.58421 7421 ft 204 kts 146°
2026-05-04 19:00 42.01097 -70.57154 7170 ft 204 kts 146°
2026-05-04 19:00 42.00042 -70.55892 6923 ft 203 kts 146°
2026-05-04 19:00 41.98987 -70.54630 6665 ft 202 kts 146°
2026-05-04 19:00 41.97935 -70.53373 6370 ft 202 kts 146°
2026-05-04 19:01 41.96883 -70.52116 6081 ft 202 kts 146°
2026-05-04 19:01 41.95848 -70.50879 5769 ft 201 kts 146°
2026-05-04 19:01 41.94809 -70.49638 5460 ft 199 kts 147°
2026-05-04 19:01 41.93776 -70.48404 5154 ft 197 kts 147°
2026-05-04 19:02 41.92757 -70.47188 4855 ft 195 kts 148°
2026-05-04 19:02 41.91752 -70.45988 4541 ft 190 kts 149°
2026-05-04 19:02 41.90792 -70.44840 4233 ft 175 kts 150°
2026-05-04 19:02 41.89883 -70.43755 3933 ft 174 kts 150°
2026-05-04 19:03 41.88975 -70.42677 3616 ft 174 kts 151°
2026-05-04 19:03 41.88035 -70.41708 3320 ft 165 kts 163°
2026-05-04 19:03 41.87016 -70.41333 3016 ft 142 kts 196°
2026-05-04 19:03 41.86084 -70.41602 2976 ft 137 kts 205°
2026-05-04 19:04 41.85151 -70.41947 2993 ft 140 kts 205°
2026-05-04 19:04 41.84215 -70.42305 2993 ft 139 kts 206°
2026-05-04 19:04 41.83286 -70.42658 2991 ft 139 kts 205°
2026-05-04 19:04 41.82296 -70.42785 2990 ft 143 kts 194°
2026-05-04 19:05 41.81332 -70.42962 2988 ft 138 kts 201°
2026-05-04 19:05 41.80389 -70.43194 2989 ft 137 kts 201°
2026-05-04 19:05 41.79450 -70.43367 2990 ft 140 kts 194°
2026-05-04 19:05 41.78469 -70.43375 2995 ft 141 kts 192°
2026-05-04 19:06 41.77802 -70.43355 2979 ft 143 kts 191°
2026-05-04 19:06 41.76426 -70.43244 2350 ft 161 kts 187°
2026-05-04 19:06 41.75314 -70.43166 1942 ft 160 kts 192°
2026-05-04 19:06 41.74224 -70.43293 1825 ft 149 kts 202°
2026-05-04 19:07 41.73366 -70.43814 1863 ft 124 kts 225°
2026-05-04 19:07 41.72760 -70.44552 1716 ft 112 kts 225°
2026-05-04 19:07 41.72192 -70.45202 1570 ft 105 kts 224°
2026-05-04 19:07 41.71613 -70.45844 1407 ft 114 kts 224°
2026-05-04 19:08 41.71054 -70.46466 1271 ft 95 kts 225°
2026-05-04 19:08 41.70641 -70.46923 1195 ft 68 kts 227°
2026-05-04 19:08 41.70273 -70.47322 1083 ft 67 kts 226°
2026-05-04 19:08 41.69915 -70.47717 981 ft 66 kts 223°
2026-05-04 19:09 41.69552 -70.48106 889 ft 71 kts 221°
2026-05-04 19:09 41.69163 -70.48519 799 ft 71 kts 224°
2026-05-04 19:09 41.68772 -70.48947 703 ft 70 kts 226°
2026-05-04 19:09 41.68410 -70.49334 568 ft 61 kts 226°
2026-05-04 19:10 41.68076 -70.49696 563 ft 69 kts 227°
2026-05-04 19:10 41.67660 -70.50144 414 ft 78 kts 224°
2026-05-04 19:10 41.67231 -70.50596 319 ft 79 kts 221°
2026-05-04 19:10 41.66822 -70.51053 217 ft 75 kts 226°
2026-05-04 19:11 41.66439 -70.51464 132 ft 54 kts 226°
2026-05-04 19:11 41.66198 -70.51721 123 ft 46 kts 216°
2026-05-04 19:11 41.66020 -70.51930 121 ft 50 kts 227°
2026-05-04 19:11 41.65798 -70.52164 119 ft 34 kts 213°
2026-05-04 19:12 41.65677 -70.52284 118 ft 16 kts 219°
2026-05-04 19:12 41.65646 -70.52424 118 ft 19 kts 312°
2026-05-04 19:12 41.65717 -70.52538 118 ft 20 kts 296°
2026-05-04 19:13 41.65805 -70.52728 119 ft 19 kts 260°
2026-05-04 19:13 41.65792 -70.52739 122 ft 0 kts 261°